DW2989 Weather Reports


time (UTC)temp
C
wind
direction
speed
KPH
gust
KPH
rain 1hr
cm
rain 24hr
cm
rain mn
cm
humidity
%
barometer
mb
20260505124530 0 117 19.3 27.4 0.00 0.03 0.00 87 1008.6
20260505123050 0 132 12.9 22.5 0.00 0.03 0.00 87 1008.5
20260505121529 0 119 16.1 22.5 0.00 0.03 0.00 88 1008.5
20260505120029 0 111 19.3 29.0 0.00 0.03 0.00 89 1008.7
20260505114524 0 115 17.7 25.7 0.00 0.03 0.00 91 1008.4
20260505113032 0 118 14.5 20.9 0.00 0.03 0.00 91 1008.5
20260505111536 0 132 12.9 19.3 0.00 0.03 0.00 91 1008.4
20260505101508 1 122 17.7 25.7 0.00 0.03 0.00 84 1008.1
20260505100005 2 126 17.7 30.6 0.00 0.03 0.00 82 1007.9
20260505094502 2 134 17.7 27.4 0.00 0.03 0.00 82 1007.7
20260505093100 2 118 19.3 27.4 0.00 0.03 0.00 82 1007.7
20260505091558 2 97 20.9 29.0 0.00 0.03 0.00 80 1007.7
20260505090058 2 110 17.7 22.5 0.00 0.03 0.00 77 1007.9
20260505084551 3 105 16.1 24.1 0.00 0.03 0.00 76 1008.0
20260505083100 3 101 17.7 25.7 0.00 0.03 0.00 73 1008.0
20260505081551 3 114 16.1 24.1 0.00 0.03 0.00 71 1008.1
20260505080040 4 89 16.1 24.1 0.00 0.03 0.00 69 1008.2
20260505074541 4 115 14.5 20.9 0.00 0.03 0.00 67 1008.0
20260505073033 4 119 12.9 17.7 0.00 0.03 0.00 66 1008.0
20260505071632 4 123 11.3 16.1 0.00 0.03 0.00 66 1008.2
20260505070038 4 135 11.3 17.7 0.00 0.03 0.00 65 1008.3
20260505064549 4 109 12.9 20.9 0.00 0.03 0.00 65 1008.2
20260505063026 4 116 16.1 22.5 0.00 0.03 0.00 65 1008.1
20260505061535 4 109 17.7 25.7 0.00 0.03 0.00 65 1008.1
20260505060026 5 123 17.7 25.7 0.00 0.03 0.00 65 1007.7
20260505054521 5 133 14.5 27.4 0.00 0.03 0.00 62 1007.6
20260505053017 5 147 19.3 29.0 0.00 0.03 0.00 59 1007.5
20260505051513 6 131 12.9 25.7 0.00 0.03 0.00 59 1007.4
20260505041502 6 144 6.4 19.3 0.00 0.03 0.00 58 1007.1
20260505040001 6 150 9.7 24.1 0.00 0.03 0.00 58 1007.1
20260505034604 6 133 17.7 27.4 0.00 0.03 0.00 59 1006.8
20260505033057 6 132 17.7 24.1 0.00 0.03 0.00 60 1006.5
20260505031601 6 128 17.7 32.2 0.00 0.03 0.00 58 1005.7
20260505030045 7 134 20.9 35.4 0.00 0.03 0.00 56 1005.3
20260505024546 8 142 20.9 35.4 0.00 0.03 0.00 56 1004.9
20260505023045 8 130 19.3 35.4 0.00 0.03 0.00 54 1004.8
20260505021542 9 137 25.7 40.2 0.00 0.03 0.00 54 1004.4
20260505020031 10 134 27.4 40.2 0.00 0.03 0.00 52 1003.9
20260505014527 11 139 25.7 38.6 0.00 0.03 0.00 47 1003.6
20260505013023 11 134 22.5 35.4 0.00 0.03 0.00 46 1003.2
20260505011516 11 164 8.0 25.7 0.00 0.03 0.00 46 1002.9
20260505010012 12 162 9.7 24.1 0.00 0.03 0.00 45 1002.7
20260505004539 12 150 9.7 24.1 0.00 0.03 0.00 45 1002.3
20260505003036 13 175 8.0 22.5 0.00 0.03 0.00 46 1002.1
20260505001540 13 153 8.0 24.1 0.00 0.03 0.00 46 1002.0
20260505000039 13 163 11.3 24.1 0.00 0.03 0.00 46 1002.0
20260504234530 13 138 12.9 29.0 0.00 0.03 0.00 45 1002.0
20260504233028 14 142 8.0 20.9 0.00 0.03 0.00 46 1001.9
20260504231603 14 155 8.0 25.7 0.00 0.03 0.00 46 1001.7
20260504230055 15 128 8.0 19.3 0.03 0.03 0.03 45 1001.7
20260504224548 13 128 9.7 30.6 0.03 0.03 0.03 52 1001.7
20260504223048 13 117 20.9 37.0 0.03 0.03 0.03 61 1001.5
20260504221556 15 311 8.0 29.0 0.03 0.03 0.03 53 1002.0
20260504220045 15 107 0.0 12.9 0.00 0.00 0.00 33 1001.6
20260504214544 16 149 3.2 17.7 0.00 0.00 0.00 31 1001.2
20260504213041 17 134 8.0 27.4 0.00 0.00 0.00 30 1001.4
20260504211547 16 154 3.2 12.9 0.00 0.00 0.00 30 1001.7
20260504210112 16 138 4.8 25.7 0.00 0.00 0.00 30 1001.8
20260504204505 17 168 3.2 27.4 0.00 0.00 0.00 30 1002.0
20260504203011 16 144 6.4 27.4 0.00 0.00 0.00 31 1002.3
20260504201532 16 161 9.7 20.9 0.00 0.00 0.00 31 1002.4
20260504200032 16 142 9.7 24.1 0.00 0.00 0.00 32 1002.5
20260504194610 14 147 4.8 19.3 0.00 0.00 0.00 34 1002.8
20260504193058 15 157 4.8 20.9 0.00 0.00 0.00 33 1003.0
20260504191532 15 160 6.4 25.7 0.00 0.00 0.00 33 1003.2
20260504190031 15 141 9.7 20.9 0.00 0.00 0.00 34 1003.3
20260504184533 15 149 8.0 17.7 0.00 0.00 0.00 34 1003.4
20260504183024 14 156 11.3 24.1 0.00 0.00 0.00 36 1003.7
20260504181525 14 174 9.7 24.1 0.00 0.00 0.00 36 1003.9
20260504180023 13 170 9.7 27.4 0.00 0.00 0.00 37 1003.9
20260504174519 13 186 11.3 17.7 0.00 0.00 0.00 36 1003.7
20260504173021 13 161 11.3 22.5 0.00 0.00 0.00 38 1003.8
20260504171517 13 169 11.3 24.1 0.00 0.00 0.00 38 1003.9